Date String (YYYY-MM-DD hh:mm:ss) UTC,Instrument flags,absolute air pressure of the measurement (hPa),sample flow rate (lpm),inlet stack bypass flow (lpm),air temperature of the measurement (°C),ambient temperature measured by the external sensor (°C),aerosol sample conditioner tube jacket temperature (°C),OPC LED temperature (°C),internal box temperature (°C),relative humidity of the measurement (%),span deviation,mass concentration of particles derived from Lorenz-Mie calculation of OPC scattering (μg/m³),mass concentration of particles derived from Lorenz-Mie calculation of OPC scattering (μg/m³),mass concentration of particles derived from Lorenz-Mie calculation of OPC scattering (μg/m³)
DateTimeUTC,F1_M11,P_M11,Q1_M11,Q2_M11,T1_M11,T2_M11,T3_M11,T4_M11,T5_M11,U1_M11,ZSPAN_M11,X0_M11,X2_M11,X1_M11
2024-03-10 18:00:00,SystemResetWarning,0828.8,5.00,000.00,020.8,020.4,000.0,029.0,022.5,12.2,0000.0,0011.16,0004.59,0003.92
2024-03-10 18:01:00,SystemResetWarning,0828.8,5.00,000.00,020.8,020.4,000.0,029.0,022.6,12.2,0000.0,0010.83,0004.57,0003.94
2024-03-10 18:02:00,SystemResetWarning,0828.8,5.00,000.00,020.8,020.5,000.0,029.0,022.6,12.3,0000.0,0011.15,0004.56,0003.95
2024-03-10 18:03:00,SystemResetWarning,0828.8,5.00,000.00,020.8,020.5,000.0,029.0,022.6,13.0,0000.0,0011.60,0004.60,0003.97
2024-03-10 18:04:00,SystemResetWarning,0828.9,5.00,000.00,020.9,020.5,000.0,029.1,022.6,12.1,0000.0,0011.62,0004.67,0004.00
2024-03-10 18:05:00,SystemResetWarning,0828.9,5.02,000.00,020.9,020.5,000.0,029.1,022.6,11.8,0000.0,0011.49,0004.71,0004.01
2024-03-10 18:06:00,SystemResetWarning,0828.9,5.01,000.00,020.9,020.5,000.0,029.1,022.7,12.0,0000.0,0012.00,0004.77,0004.05
2024-03-10 18:07:00,SystemResetWarning,0828.9,5.00,000.00,020.9,020.5,000.0,029.1,022.7,12.1,0000.0,0012.84,0004.85,0004.10
2024-03-10 18:08:00,SystemResetWarning,0828.9,4.99,000.00,020.9,020.6,000.0,029.1,022.7,12.1,0000.0,0012.88,0004.86,0004.16
2024-03-10 18:09:00,SystemResetWarning,0829.0,5.00,000.00,020.9,020.6,000.0,029.1,022.7,12.1,0000.0,0012.28,0004.94,0004.22
2024-03-10 18:10:00,SystemResetWarning,0828.9,5.00,000.00,021.0,020.6,000.0,029.2,022.7,12.0,0000.0,0012.73,0005.04,0004.30
2024-03-10 18:11:00,SystemResetWarning,0828.9,5.00,000.00,021.0,020.6,000.0,029.2,022.8,11.9,0000.0,0013.34,0005.18,0004.39
2024-03-10 18:12:00,SystemResetWarning,0829.0,5.00,000.00,021.0,020.6,000.0,029.2,022.8,11.6,0000.0,0013.64,0005.32,0004.47
2024-03-10 18:13:00,SystemResetWarning,0828.9,5.00,000.00,021.0,020.7,000.0,029.2,022.8,11.9,0000.0,0013.46,0005.41,0004.53
2024-03-10 18:14:00,SystemResetWarning,0828.9,5.00,000.00,021.0,020.7,000.0,029.2,022.8,11.8,0000.0,0014.07,0005.42,0004.57
2024-03-10 18:15:00,SystemResetWarning,0828.9,5.02,000.00,021.1,020.7,000.0,029.3,022.8,12.0,0000.0,0014.85,0005.39,0004.57
2024-03-10 18:16:00,SystemResetWarning,0828.8,5.00,000.00,021.1,020.7,000.0,029.3,022.9,12.0,0000.0,0014.84,0005.41,0004.59
2024-03-10 18:17:00,SystemResetWarning,0828.8,4.99,000.00,021.1,020.8,000.0,029.3,022.9,11.4,0000.0,0014.57,0005.46,0004.62
2024-03-10 18:18:00,SystemResetWarning,0828.8,5.00,000.00,021.1,020.8,000.0,029.3,022.9,11.0,0000.0,0014.28,0005.50,0004.62
2024-03-10 18:19:00,SystemResetWarning,0828.8,5.00,000.00,021.1,020.8,000.0,029.3,022.9,11.2,0000.0,0014.22,0005.52,0004.61
2024-03-10 18:20:00,SystemResetWarning,0828.8,4.99,000.00,021.2,020.8,000.0,029.4,023.0,11.0,0000.0,0014.15,0005.51,0004.62
2024-03-10 18:21:00,SystemResetWarning,0828.8,5.00,000.00,021.2,020.8,000.0,029.4,023.0,10.8,0000.0,0014.45,0005.53,0004.63
2024-03-10 18:22:00,SystemResetWarning,0828.7,5.00,000.00,021.2,020.9,000.0,029.4,023.0,11.2,0000.0,0014.52,0005.49,0004.63
2024-03-10 18:23:00,SystemResetWarning,0828.7,4.99,000.00,021.2,020.9,000.0,029.4,023.0,11.0,0000.0,0014.92,0005.52,0004.60
2024-03-10 18:24:00,SystemResetWarning,0828.7,4.99,000.00,021.2,020.9,000.0,029.4,023.0,11.1,0000.0,0015.47,0005.55,0004.61
2024-03-10 18:25:00,SystemResetWarning,0828.7,5.01,000.00,021.3,020.9,000.0,029.4,023.0,11.2,0000.0,0015.27,0005.61,0004.63
2024-03-10 18:26:00,SystemResetWarning,0828.7,5.01,000.00,021.3,020.9,000.0,029.5,023.1,11.2,0000.0,0014.19,0005.66,0004.67
2024-03-10 18:27:00,SystemResetWarning,0828.7,5.01,000.00,021.3,020.9,000.0,029.5,023.1,10.7,0000.0,0014.18,0005.71,0004.69
2024-03-10 18:28:00,SystemResetWarning,0828.7,5.00,000.00,021.3,021.0,000.0,029.5,023.1,10.6,0000.0,0014.22,0005.69,0004.69
2024-03-10 18:29:00,SystemResetWarning,0828.6,5.00,000.00,021.3,021.0,000.0,029.5,023.1,10.8,0000.0,0013.95,0005.66,0004.69
2024-03-10 18:30:00,SystemResetWarning,0828.7,4.99,000.00,021.4,021.0,000.0,029.5,023.1,10.5,0000.0,0013.59,0005.66,0004.70
2024-03-10 18:31:00,SystemResetWarning,0828.7,4.99,000.00,021.4,021.0,000.0,029.6,023.1,11.1,0000.0,0013.76,0005.67,0004.68
2024-03-10 18:32:00,SystemResetWarning,0828.7,5.00,000.00,021.4,021.0,000.0,029.6,023.2,10.6,0000.0,0013.38,0005.59,0004.61
2024-03-10 18:33:00,SystemResetWarning,0828.7,5.00,000.00,021.4,021.0,000.0,029.6,023.2,10.4,0000.0,0012.75,0005.56,0004.57
2024-03-10 18:34:00,SystemResetWarning,0828.7,5.00,000.00,021.4,021.1,000.0,029.6,023.2,10.2,0000.0,0012.49,0005.44,0004.52
2024-03-10 18:35:00,SystemResetWarning,0828.6,5.00,000.00,021.5,021.1,000.0,029.6,023.2,10.2,0000.0,0011.76,0005.33,0004.45
2024-03-10 18:36:00,SystemResetWarning,0828.6,5.01,000.00,021.5,021.1,000.0,029.7,023.3,10.2,0000.0,0011.15,0005.26,0004.38
2024-03-10 18:37:00,SystemResetWarning,0828.6,5.00,000.00,021.5,021.1,000.0,029.7,023.3,11.1,0000.0,0010.92,0005.20,0004.30
2024-03-10 18:38:00,SystemResetWarning,0828.6,4.99,000.00,021.5,021.1,000.0,029.7,023.3,10.7,0000.0,0011.15,0005.11,0004.22
2024-03-10 18:39:00,SystemResetWarning,0828.6,5.00,000.00,021.5,021.2,000.0,029.7,023.3,10.9,0000.0,0011.12,0005.04,0004.14
2024-03-10 18:40:00,SystemResetWarning,0828.6,4.99,000.00,021.6,021.2,000.0,029.7,023.3,11.0,0000.0,0010.95,0004.95,0004.09
2024-03-10 18:41:00,SystemResetWarning,0828.6,5.00,000.00,021.6,021.2,000.0,029.7,023.3,10.9,0000.0,0010.87,0004.90,0004.04
2024-03-10 18:42:00,SystemResetWarning,0828.6,5.00,000.00,021.6,021.2,000.0,029.8,023.4,11.1,0000.0,0010.72,0004.85,0003.99
2024-03-10 18:43:00,SystemResetWarning,0828.6,5.00,000.00,021.6,021.2,000.0,029.8,023.4,11.2,0000.0,0010.01,0004.83,0003.97
2024-03-10 18:44:00,SystemResetWarning,0828.6,5.01,000.00,021.6,021.3,000.0,029.8,023.4,11.1,0000.0,0009.76,0004.75,0003.91
2024-03-10 18:45:00,SystemResetWarning,0828.5,5.00,000.00,021.7,021.3,000.0,029.8,023.4,10.9,0000.0,0009.39,0004.70,0003.86
2024-03-10 18:46:00,SystemResetWarning,0828.6,5.00,000.00,021.7,021.3,000.0,029.8,023.5,10.1,0000.0,0009.48,0004.67,0003.83
2024-03-10 18:47:00,SystemResetWarning,0828.5,4.99,000.00,021.7,021.3,000.0,029.9,023.5,09.7,0000.0,0009.58,0004.62,0003.81
2024-03-10 18:48:00,SystemResetWarning,0828.6,5.00,000.00,021.7,021.4,000.0,029.9,023.5,09.7,0000.0,0009.41,0004.56,0003.80
2024-03-10 18:49:00,SystemResetWarning,0828.6,4.99,000.00,021.7,021.4,000.0,029.9,023.5,09.9,0000.0,0009.14,0004.53,0003.78
2024-03-10 18:50:00,SystemResetWarning,0828.6,5.00,000.00,021.8,021.4,000.0,029.9,023.6,09.1,0000.0,0009.11,0004.50,0003.75
2024-03-10 18:51:00,SystemResetWarning,0828.6,5.00,000.00,021.8,021.4,000.0,029.9,023.6,09.1,0000.0,0009.09,0004.45,0003.72
2024-03-10 18:52:00,SystemResetWarning,0828.6,5.01,000.00,021.8,021.4,000.0,030.0,023.6,09.6,0000.0,0009.12,0004.41,0003.68
2024-03-10 18:53:00,SystemResetWarning,0828.5,5.00,000.00,021.8,021.5,000.0,030.0,023.6,10.2,0000.0,0009.73,0004.42,0003.64
2024-03-10 18:54:00,SystemResetWarning,0828.6,5.00,000.00,021.8,021.5,000.0,030.0,023.7,10.2,0000.0,0010.22,0004.41,0003.61
2024-03-10 18:55:00,SystemResetWarning,0828.5,4.99,000.00,021.9,021.5,000.0,030.0,023.7,10.1,0000.0,0010.28,0004.41,0003.61
2024-03-10 18:56:00,SystemResetWarning,0828.5,4.99,000.00,021.9,021.5,000.0,030.0,023.7,10.4,0000.0,0010.59,0004.42,0003.62
2024-03-10 18:57:00,SystemResetWarning,0828.5,5.00,000.00,021.9,021.5,000.0,030.1,023.7,09.9,0000.0,0011.00,0004.46,0003.63
2024-03-10 18:58:00,SystemResetWarning,0828.6,5.00,000.00,021.9,021.5,000.0,030.1,023.7,09.2,0000.0,0011.18,0004.48,0003.64
2024-03-10 18:59:00,SystemResetWarning,0828.6,5.00,000.00,021.9,021.6,000.0,030.1,023.8,09.2,0000.0,0011.33,0004.49,0003.64
